Terminal Aerodrome Forecast
Issued by NWS Aberdeen, SD

Home | Current Version | Previous Version | Text Only | Print | Product List | Glossary On
Versions: 1 2 3 4 5 6 7 8 9 10 11 12 13 14 15 16 17 18 19 20 21 22 23 24 25 26 27 28 29 30 31 32 33 34 35 36 37 38 39 40 41 42 43 44 45 46 47 48 49
000
FTUS43 KABR 291819 AAB
TAFABR
TAF AMD
KABR 291819Z 2918/3018 03010KT P6SM SCT020
      TEMPO 2918/2919 BKN020
     FM292000 03013KT P6SM FEW030 FEW140
     FM300100 03007KT P6SM FEW250
     FM301500 07007KT P6SM FEW250=

USA.gov is the U.S. government's official web portal to all federal, state and local government web resources and services.